Regional Weather Roundup
Issued by NWS

Home | Current Version | Previous Version | Graphics & Text | Print | Product List | Glossary On
Versions: 1 2 3 4 5 6 7 8 9 10 11 12 13 14 15 16 17 18 19 20 21 22 23 24 25 26 27 28 29 30 31 32 33 34 35 36 37 38 39 40 41 42 43 44 45 46 47 48 49 50
000
ASUS43 KMKX 010400
RWRWI

WISCONSIN REGIONAL WEATHER ROUNDUP
NATIONAL WEATHER SERVICE MILWAUKEE/SULLIVAN WI
1100 PM CDT SUN APR 30 2017

NOTE: "FAIR" INDICATES FEW OR NO CLOUDS BELOW 12,000 FEET WITH NO
SIGNIFICANT WEATHER AND/OR OBSTRUCTIONS TO VISIBILITY.

WIZ001-002-006>008-014>016-023>028-010500-
NORTHWEST WISCONSIN

CITY           SKY/WX    TMP DP  RH WIND       PRES   REMARKS
SUPERIOR ARPT  CLOUDY    38  28  66 NE18G26   29.82F WCI  29
ASHLAND        CLOUDY    39  28  64 NE15      29.80F WCI  31
HAYWARD        CLOUDY    40  25  55 NE12      29.74F WCI  33
SIREN          RAIN      38  30  72 E5        29.75R WCI  35
CUMBERLAND     LGT RAIN  37  32  81 NE10      29.71F WCI  30
RICE LAKE      CLOUDY    38  34  85 NE13G20   29.71F WCI  30
CHETEK         NOT AVBL
LADYSMITH      RAIN      39  35  86 NE10G18   29.71F WCI  32
EAU CLAIRE     NOT AVBL
MENOMONIE      CLOUDY    43  38  83 NE12      29.63F
NEW RICHMOND   RAIN      39  32  75 NE14G21   29.67F WCI  31
OSCEOLA        DRIZZLE   40  34  77 N16G22    29.71F WCI  32
$$

WIZ003>005-009-010-017-018-010500-
NORTH CENTRAL WISCONSIN

CITY           SKY/WX    TMP DP  RH WIND       PRES   REMARKS
MANITOWISH WTR CLOUDY    39  29  67 E13G18    29.77  WCI  32
ARBOR VITAE    CLOUDY    41  34  74 E9G17     29.76F
WOODRUFF       CLOUDY    41  34  74 E9G17     29.76F
RHINELANDER    LGT RAIN  39  37  92 E15G26    29.75F WCI  31
EAGLE RIVER    LGT RAIN  37  33  84 E13G20    29.78F WCI  29
LAND O LAKES   DRIZZLE   40  33  75 E13G18    29.80F WCI  33
PHILLIPS       LGT RAIN  38  37  93 E10G16    29.73F WCI  31
TOMAHAWK       DRIZZLE   37  35  90 E14G21    29.74F WCI  29
MEDFORD        CLOUDY    37  34  90 E18G28    29.70F WCI  27
MERRILL        CLOUDY    37  36  96 E15G22    29.72F WCI  28
$$

WIZ029-030-035-036-043>047-010500-
CENTRAL WISCONSIN

CITY           SKY/WX    TMP DP  RH WIND       PRES   REMARKS
WAUSAU         CLOUDY    36  35  96 E9G22     29.69F WCI  29
MOSINEE        CLOUDY    36  36 100 E17G32    29.71F WCI  25
MARSHFIELD     CLOUDY    37  34  89 E18G29    29.66S WCI  27
STEVENS POINT  CLOUDY    35  35 100 E22G31    29.72F WCI  23
WAUPACA        CLOUDY    39  37  91 NE15G21   29.73F WCI  31
WAUTOMA        RAIN      38  37  97 MISG        N/A
WISC RAPIDS    LGT RAIN  37  36  96 E18G28    29.69F WCI  27
CAMP DOUGLAS   TSTM      37  36  93 E20G28    29.60F FOG     WCI  27
$$

WIZ011>013-019>022-031-037>040-048>050-010500-
NORTHEAST WISCONSIN

CITY           SKY/WX    TMP DP  RH WIND       PRES   REMARKS
ANTIGO         CLOUDY    35  34  97 E18G33    29.74F WCI  24
SHAWANO        CLOUDY    39  36  89 E17G29    29.77F WCI  30
OCONTO         NOT AVBL
STURGEON BAY   CLOUDY    37  35  92 NE15G26   29.78F WCI  28
GREEN BAY      CLOUDY    39  38  96 NE23G29   29.76F WCI  28
MANITOWOC      NOT AVBL
APPLETON       LGT RAIN  37  37 100 NE22G30   29.70F FOG     WCI  27
CLINTONVILLE   CLOUDY    36  34  93 E18G25    29.74F WCI  25
OSHKOSH        LGT RAIN  40  37  89 NE21G29   29.69F WCI  30
$$

WIZ032>034-041-042-053>061-010500-
SOUTHWEST WISCONSIN

CITY           SKY/WX    TMP DP  RH WIND       PRES   REMARKS
LA CROSSE      HVY RAIN  41  38  89 E12G23    29.61F FOG
SPARTA         CLOUDY    38  37  94 SE15G26   29.68R WCI  30
VIROQUA        CLOUDY    37  37  99 E15       29.58R VSB 1   WCI  28
BOSCOBEL       LGT RAIN  41  32  70 SW14G20   29.66R
PRAIRIE DU CHI RAIN      41  40  97 SW7G21    29.67R
PLATTEVILLE    CLOUDY    42  42 100 SW22G30   29.63R
$$

WIZ056-057-062-063-064-067-068-010500-
SOUTH CENTRAL WISCONSIN

CITY           SKY/WX    TMP DP  RH WIND       PRES   REMARKS
REEDSBURG      LGT RAIN  38  38 100 E15G24    29.59F WCI  29
BARABOO/DELLS  RAIN      38  37  97 E17G23    29.62F WCI  29
LONE ROCK      HVY RAIN  41  38  89 E20G30    29.59F FOG
MINERAL POINT  RAIN      41  41 100 E15G22    29.55F
MADISON        RAIN      40  38  93 NE15G22   29.59F FOG     WCI  32
MIDDLETON      CLOUDY    41  41 100 E17G29    29.60F
WATERTOWN      TSTM      40  40 100 NE9       29.64F WCI  34
MONROE         LGT RAIN  41  41 100 NE15G24   29.56F
JANESVILLE     RAIN      43  43 100 E22       29.55F
$$

WIZ051-052-058>065-066-070>072-010500-
SOUTHEAST WISCONSIN

CITY           SKY/WX    TMP DP  RH WIND       PRES   REMARKS
MILWAUKEE      LGT RAIN  42  41  96 NE13G24   29.63F
WAUKESHA       LGT RAIN  37  37 100 NE3G12    29.65
MILWAUKEE/TIMM LGT RAIN  39  37  93 NE12G21   29.67F WCI  32
RACINE         LGT RAIN  42  40  92 NE20      29.62F
KENOSHA        RAIN      43  41  93 NE16G29   29.59F FOG
FOND DU LAC    RAIN      40  36  86 NE17G24   29.68F WCI  31
SHEBOYGAN      LGT RAIN  40  38  93 NE21      29.70F WCI  30
WEST BEND      LGT RAIN  39  39 100 E15G21    29.68F WCI  31
JUNEAU         LGT RAIN  39  38  97 NE13      29.66F WCI  32
$$

LSZ147-162-010500-
LAKE SUPERIOR

STATION/POSITION TIME  TEMP    WIND        PRES    WAVE
                       AIR SEA DIR/SP/G            HT/PER
                 (UTC) (F)     (DEG/KT/KT) (MB)    (FT/S)
DEVILS ISLAND    0300   39      60/ 19/ 21 1012.9F
PORT WING        0340   38      40/ 16/ 19 1010.2F
SAXON HARBOR     0330   39      50/ 10/ 11 1009.8F
$$

LMZ867-665-643>646-010500-
LAKE MICHIGAN

STATION/POSITION TIME  TEMP    WIND        PRES    WAVE
                       AIR SEA DIR/SP/G            HT/PER
                 (UTC) (F)     (DEG/KT/KT) (MB)    (FT/S)
CHAMBERS ISLAND  0340   38      50/ 18/ 24 1010.5F
N MID LAKE BUOY  0250   37 37   80/ 17/ 21 1013.1F   4/ 5
NORTHPORT PIER   0340   38      70/ 18/ 22 1010.8F
KEWAUNEE LAKESHO 0330   39      40/ 19/ 22 1008.4F
SHEBOYGAN LAKESH 0300   40      30/ 20/ 23 1007.7F
PORT WASHINGTON  0340   41      40/ 18/ 23 1006.1F
MILWAUKEE LAKESH 0340   41      30/ 18/ 21   N/A
S MID LAKE BUOY  0250   42 41   50/ 17/ 21 1005.1F   3/ 4
KENOSHA   LAKESH 0300   42      30/ 21/ 25 1004.4
$$

TC  - TEMPERATURE IN CELSIUS
VSB - VISIBILITY IN STATUTE MILES
WCI - WIND CHILL INDEX
HX  - HEAT INDEX




USA.gov is the U.S. government's official web portal to all federal, state and local government web resources and services.